INTELSAT 36 (IS-36) (41747 NORAD) Tracking and Keplerian Element Data

This shows tracking and keplerian element data for the satellite.

Feedback or suggestion? Click here.




ElementValue
Catalog41747
NameINTELSAT 36 (IS-36)
Epoch Orbit2851
Epoch Day157.71848856
Epoch Year2024
RAAN5.4946
Inclination0.0134
Eccentricity0.0001902
Argument of Perigee352.708
Mean Anonmoly223.5708
Mean Motion1.00271036
Decay Rate-2.2E-07
L11 41747U 16053A 24157.71848856 -.00000022 00000+0 00000+0 0 9997
L22 41747 0.0134 5.4946 0001902 352.7080 223.5708 1.00271036 28511



Live tracking and technical data element details for INTELSAT 36 (IS-36) (NORAD 41747). INTELSAT 36 (IS-36) can be tracked NOW for your location showing map with azimuth and elevation plus other details from your city location.







IsCatalogInMostPopularTable: catalog: 41747, numindb: 602
Update: records affected: 1



GetName: 41747 INTELSAT 36 (IS-36)

Hit Count: updated at: Fri, 14 Jun 2024 19:02:24 GMT